Regional Weather Roundup
Issued by NWS

Home | Current Version | Previous Version | Graphics & Text | Print | Product List | Glossary On
Versions: 1 2 3 4 5 6 7 8 9 10 11 12 13 14 15 16 17 18 19 20 21 22 23 24 25 26 27 28 29 30 31 32 33 34 35 36 37 38 39 40 41 42 43 44 45 46 47 48 49 50
000
ASUS43 KMPX 010310
RWRMN
WEATHER ROUNDUP FOR MINNESOTA
NATIONAL WEATHER SERVICE TWIN CITIES/CHANHASSEN MN
1000 PM CDT SUN AUG 31 2014


NOTE: "FAIR" INDICATES FEW OR NO CLOUDS BELOW 12,000 FEET WITH NO
SIGNIFICANT WEATHER AND/OR OBSTRUCTIONS TO VISIBILITY. N/A MEANS
CURRENT SKY AND/OR WEATHER CONDITIONS ARE NOT AVAILABLE.

MNZ060>063-068>070-010400-
   Twin Cities Metro

CITY           SKY/WX    TMP DP  RH WIND       PRES   REMARKS
TWIN CITIES    TSTM      66  64  93 W15G24    29.71R FOG
ST PAUL        LGT RAIN  69  65  86 W23G39    29.71R
CRYSTAL        TSTM      67  63  87 SE13      29.69R FOG
BLAINE         HVY RAIN  68  66  94 S10       29.72R
LAKEVILLE      RAIN      64  63  94 NW15G23   29.71R
EDEN PRAIRIE   LGT RAIN  66  64  94 E3        29.68F FOG
SOUTH ST PAUL  LGT RAIN  71  66  84 W15G29    29.71R
LAKE ELMO      LGT RAIN  73  64  73 SW26G35   29.72R
$$
MNZ001>005-007-008-013>017-022>024-027-028-010400-
   Northwest Minnesota

CITY           SKY/WX    TMP DP  RH WIND       PRES   REMARKS
BEMIDJI        PTCLDY    61  60  96 S5        29.63R
HALLOCK        PTCLDY    59  57  94 CALM      29.59S
ROSEAU         MOCLDY    61  55  82 W7        29.58S
WARROAD        MOCLDY    61  55  82 W5        29.57F
THIEF RVR FALL CLEAR     61  57  88 NW6       29.61R
CROOKSTON      PTCLDY    61  57  88 NW5       29.62R
FOSSTON        MOCLDY    59  57  94 CALM      29.64R
DETROIT LAKES  PTCLDY    64  63  94 CALM      29.67R
MOORHEAD       PTCLDY    63  63 100 N3        29.62R
PARK RAPIDS    MOCLDY    64  62  93 SW3       29.65R
MAHNOMEN       FAIR      61  59  94 SW5       29.64R
$$
MNZ006-009>011-018-025>026-010400-
   North Central Minnesota

CITY           SKY/WX    TMP DP  RH WIND       PRES   REMARKS
BAUDETTE       CLOUDY    63  60  90 VRB6      29.56F
FLAG ISLAND    CLOUDY    63  57  82 W13       29.53S
INTL FALLS     CLOUDY    64  62  93 VRB3      29.57F
WASKISH        MOCLDY    64  61  88 W10       29.60R
BIG FORK       MOCLDY    64  61  88 CALM      29.61S
LONGVILLE      CLOUDY    64  63  94 CALM      29.62S
GRAND RAPIDS   CLOUDY    66  61  82 W5        29.61F
CRANE LAKE     CLOUDY    64  63  94 CALM      29.61S
ORR            CLOUDY    64  61  88 CALM      29.57F
COOK           CLOUDY    66  64  94 CALM      29.60F
WALKER         MOCLDY    63  62  95 W3        29.63R
$$
MNZ012-019>021-037-010400-
   Northeast Minnesota

CITY           SKY/WX    TMP DP  RH WIND       PRES   REMARKS
DULUTH         CLOUDY    63  60  90 E9        29.61F
ELY            CLOUDY    63  57  82 S5        29.61S
HIBBING        CLOUDY    62  61  96 CALM      29.60F FOG
EVELETH        CLOUDY    63  61  94 CALM      29.62F
DULUTH HARBOR  CLOUDY    63  61  94 NE14      29.61F
TWO HARBORS    CLOUDY    61  55  82 NE3       29.61F
SILVER BAY     CLOUDY    59  59 100 NE3       29.61F
GRAND MARAIS     N/A     65  58  78 NE10      29.65S
G MARAIS ARPRT CLOUDY    61  55  82 E7        29.69S
$$
MNZ029>031-032-039>041-046>048-054>057-064-010400-
   West Central Minnesota

CITY           SKY/WX    TMP DP  RH WIND       PRES   REMARKS
FERGUS FALLS   MOCLDY    64  63  94 CALM      29.63S
WHEATON        MOCLDY    61  59  94 CALM      29.66R
MORRIS         CLOUDY    66  64  94 CALM      29.65R
ALEXANDRIA     CLOUDY    66  62  87 W3        29.66R
ELBOW LAKE     FAIR      64  63  96 CALM      29.64R
WADENA         CLOUDY    64  63  94 CALM      29.64R
GLENWOOD       CLOUDY    66  64  94 W3        29.66R
APPLETON       CLOUDY    66  64  94 CALM      29.65R
BENSON         CLOUDY    66  66 100 CALM      29.66R
ORTONVILLE     CLOUDY    66  61  82 NW3       29.66R
MADISON        CLOUDY    68  66  94 CALM      29.66R
WILLMAR        FAIR      70  64  83 CALM      29.67R
$$
MNZ033>034-036-042>043-049>051-058-059-010400-
   Central Minnesota

CITY           SKY/WX    TMP DP  RH WIND       PRES   REMARKS
ST CLOUD       LGT RAIN  67  64  90 CALM      29.63F FOG
SAUK CENTRE    CLOUDY    66  64  94 CALM      29.65R
PAYNESVILLE    HVY RAIN  64  64  98 SE8       29.65S
AITKIN         CLOUDY    66  61  82 CALM      29.63R HAZE
PINE RIVER     LGT RAIN  64  63  94 CALM      29.66R
BRAINERD       CLOUDY    65  64  97 S3        29.64R
STAPLES        CLOUDY    64  63  94 W3        29.64R
LONG PRAIRIE   CLOUDY    64  63  94 CALM      29.66R
LITTLE FALLS   LGT RAIN  64  63  94 CALM      29.63S
LITCHFIELD     CLOUDY    66  66 100 S3        29.67R
BUFFALO        RAIN      65  63  92 SE6       29.68S
MAPLE LAKE     RAIN      67  66  97 CALM      29.67F
$$
MNZ037-044-045-052-053-010400-
   East Central Minnesota

CITY           SKY/WX    TMP DP  RH WIND       PRES   REMARKS
PRINCETON      CLOUDY    66  64  94 SW3       29.66R
MORA           LGT RAIN  64  63  94 SW5       29.66R
CAMBRIDGE      RAIN      70  61  73 W6        29.64R
RUSH CITY      LGT RAIN  71  60  69 SW5       29.65R
MOOSE LAKE     CLOUDY    66  64  94 CALM      29.61R
HINCKLEY       LGT RAIN  70  63  78 SW8       29.63R
CLOQUET        LGT RAIN  64  63  94 CALM      29.63R
MCGREGOR       CLOUDY    64  63  94 SW6       29.63R
$$
MNZ071>073-080-081-089-090-097-098-010400-
   Southwest Minnesota

CITY           SKY/WX    TMP DP  RH WIND       PRES   REMARKS
MONTEVIDEO     CLOUDY    66  64  94 CALM      29.67R
GRANITE FALLS  CLOUDY    68  64  85 CALM      29.67R
CANBY          CLOUDY    65  63  93 CALM      29.67R
MARSHALL       CLOUDY    68  61  77 CALM      29.65R
REDWOOD FALLS  LGT RAIN  68  67  96 E5        29.65R
OLIVIA         LGT RAIN  70  66  88 CALM      29.65R
PIPESTONE      CLOUDY    66  59  77 E3        29.69R
WINDOM         LGT RAIN  66  64  94 E8        29.65F
WORTHINGTON    CLOUDY    64  64 100 S8        29.70R
JACKSON        CLOUDY    68  64  88 S5        29.69S
TRACY          LGT RAIN  65  64  96 CALM      29.67R
SLAYTON        CLOUDY    65  64  96 CALM      29.69R
$$
MNZ065>067-074>077-082>085-091>093-010400-
   South Central Minnesota

CITY           SKY/WX    TMP DP  RH WIND       PRES   REMARKS
MANKATO        CLOUDY    66  63  88 N10       29.67F
NEW ULM        RAIN      66  66 100 SE7       29.68R
ST JAMES       RAIN      68  64  88 N3        29.68R
FAIRMONT       CLOUDY    64  61  88 N3        29.68R THUNDER
GLENCOE        CLOUDY    66  63  89 SE10      29.69R
FARIBAULT      RAIN      70  63  78 W5        29.71R
OWATONNA       TSTM      66  63  88 CALM      29.69F
WASECA         TSTM      63  59  88 NE7       29.66F
ALBERT LEA     TSTM      64  64 100 N5        29.68F
$$
MNZ078>079-086>088-094>096-010400-
   Southeast Minnesota

CITY           SKY/WX    TMP DP  RH WIND       PRES   REMARKS
ROCHESTER      CLOUDY    68  64  87 SE6       29.70F
RED WING       LGT RAIN  73  63  68 SW3       29.70R
STANTON        RAIN      70  64  81 W10G16    29.71R
DODGE CENTER   LGT RAIN  68  64  88 W8        29.70S
WINONA         CLOUDY    70  64  83 SE6       29.70F
AUSTIN         TSTM      66  64  94 S25G32    29.67F
PRESTON        LGT RAIN  70  70 100 CALM      29.72F
$$
ABBREVIATIONS USED IN REMARKS
   TC - TEMPERATURES IN CELSIUS
  WCI - WIND CHILL INDEX
   HX - HEAT INDEX
  VSB - VISIBILITY
$$


USA.gov is the U.S. government's official web portal to all federal, state and local government web resources and services.